Tracking 18816 objects as of 18-October-2017
HD Live streaming from Space Station
objects crossing your sky now

CZ-4 DEB

Track CZ-4 DEB now!
10-day predictions


NORAD ID: 26259
Int'l Code: 1999-057EV
Perigee: 667.1 km
Apogee: 798.0 km
Inclination: 98.6 °
Period: 99.3 minutes
Semi major axis: 7103 km
RCS: 0.031 m2 (small)
Launch date: October 14, 1999
Source: People's Republic of China (PRC)
Launch site: Taiyaun Space Center, China (TSC)

Note: This is SATELLITE DEBRIS
aabbcc
Your satellite tracking list
Your tracking list is empty





NASA's NSSDC Master Catalog

Two Line Element Set (TLE):
1 26259U 99057EV  17290.45412003 +.00000752 +00000-0 +19601-3 0  9996
2 26259 098.5694 275.1949 0092091 022.1443 103.2841 14.50069694923592
Source of the keplerian elements: AFSPC